Weather History for Poplar Bluff, MO

Change the Weather History Date:

Friday, November 1, 2013

  Actual Average Record
Temperature  
Mean Temperature 60 °F -  
Max Temperature 71 °F 67 °F 84 °F (1937)
Min Temperature 50 °F 45 °F 22 °F (1930)
Degree Days  
Heating Degree Days 4    
Growing Degree Days 10 (Base 50)    
Moisture  
Dew Point 44 °F    
Average Humidity 62    
Maximum Humidity 89    
Minimum Humidity 32    
Precipitation  
Precipitation 0.00 in - - ()
Sea Level Pressure  
Sea Level Pressure 29.79 in    
Wind  
Wind Speed 5 mph (West)    
Max Wind Speed 13 mph    
Max Gust Speed 21 mph    
Visibility 10 miles    
Events      
Averages and records for this station are not official NWS values.
T = Trace of Precipitation, MM = Missing Value Source: NWS Daily Summary

Daily Weather History Graph

Daily Weather History Graph

Search for Another Location

Airport:

Trip Planner

Search our weather history database for the weather conditions in past years. The results will help you decide how hot, cold, wet, or windy it might be!

Date:

Astronomy

Nov. 01, 2013 Rise Set
Actual Time 7:25 AM CDT 6:03 PM CDT
Civil Twilight 6:58 AM CDT 6:30 PM CDT
Nautical Twilight 6:27 AM CDT 7:01 PM CDT
Astronomical Twilight 5:57 AM CDT 7:31 PM CDT
Moon 5:20 AM CDT (11/1) 4:55 PM CDT (11/1)
Length of Visible Light 11h 32m
Length of Day
10h 38m
Waning Crescent, 4% of the Moon is Illuminated
Nov 1
Waning Crescent
Nov 3
New
Nov 9
First Quarter
Nov 17
Full
Nov 25
Last Quarter

Hourly Weather History & Observations

Time (CDT) Temp. Dew Point Humidity Pressure Visibility Wind Dir Wind Speed Gust Speed Precip Events Conditions
12:53 AM 54.0 °F 48.9 °F 83% 29.73 in 10.0 mi Calm Calm - N/A   Clear
1:53 AM 53.1 °F 48.9 °F 86% 29.75 in 10.0 mi SW 5.8 mph - N/A   Clear
2:53 AM 52.0 °F 48.9 °F 89% 29.75 in 10.0 mi SW 3.5 mph - N/A   Clear
3:53 AM 52.0 °F 48.0 °F 86% 29.73 in 10.0 mi SW 4.6 mph - N/A   Clear
4:53 AM 50.0 °F 46.9 °F 89% 29.74 in 10.0 mi Calm Calm - N/A   Clear
5:53 AM 50.0 °F 46.9 °F 89% 29.76 in 10.0 mi SSW 4.6 mph - N/A   Clear
6:53 AM 50.0 °F 46.9 °F 89% 29.76 in 10.0 mi SSW 6.9 mph - N/A   Clear
7:53 AM 50.0 °F 46.9 °F 89% 29.77 in 10.0 mi SW 6.9 mph - N/A   Clear
8:53 AM 53.1 °F 48.9 °F 86% 29.78 in 10.0 mi SW 5.8 mph - N/A   Clear
9:53 AM 57.9 °F 48.9 °F 72% 29.78 in 10.0 mi WSW 6.9 mph - N/A   Clear
10:53 AM 63.0 °F 48.0 °F 58% 29.78 in 10.0 mi West 8.1 mph 17.3 mph N/A   Clear
11:53 AM 66.0 °F 46.9 °F 50% 29.79 in 10.0 mi West 11.5 mph - N/A   Clear
12:53 PM 66.9 °F 43.0 °F 42% 29.78 in 10.0 mi West 12.7 mph 18.4 mph N/A   Clear
1:53 PM 68.0 °F 41.0 °F 37% 29.76 in 10.0 mi West 12.7 mph 20.7 mph N/A   Clear
2:53 PM 71.1 °F 39.9 °F 32% 29.75 in 10.0 mi WNW 8.1 mph - N/A   Clear
3:53 PM 70.0 °F 39.9 °F 33% 29.75 in 10.0 mi WNW 11.5 mph 20.7 mph N/A   Clear
4:53 PM 69.1 °F 37.9 °F 32% 29.76 in 10.0 mi West 10.4 mph - N/A   Clear
5:53 PM 64.9 °F 39.0 °F 39% 29.78 in 10.0 mi WNW 6.9 mph - N/A   Clear
6:53 PM 63.0 °F 39.9 °F 43% 29.81 in 10.0 mi WNW 5.8 mph - N/A   Mostly Cloudy
7:53 PM 61.0 °F 39.9 °F 46% 29.84 in 10.0 mi West 6.9 mph - N/A   Clear
8:53 PM 59.0 °F 39.9 °F 49% 29.86 in 10.0 mi WNW 6.9 mph - N/A   Clear
9:53 PM 57.0 °F 41.0 °F 55% 29.87 in 10.0 mi WNW 6.9 mph - N/A   Clear
10:53 PM 55.0 °F 41.0 °F 59% 29.88 in 10.0 mi WNW 5.8 mph - N/A   Clear
11:53 PM 53.1 °F 42.1 °F 66% 29.89 in 10.0 mi NW 6.9 mph - N/A   Clear